Torna al catalogo

STARLINK-37854

AttivoComunicazioniSSO
NORAD 69494·PAYLOAD·🇺🇸 United States

Lanciato Jun 11, 2026 da Vandenberg Space Force Base

Loading…

Prossimi Passaggi (prossime 24 ore)

TLE

AggiornatoSource: CelesTrak SupGP

Epoca: Sep 15, 2026, 04:10 UTC

1 69494C 26131S   26258.17409722 -.00054604  00000+0 -16922-2 0  2580
2 69494  97.2835 279.1529 0001633  95.2723 270.2427 15.33520628    14

Traccia STARLINK-37854 in tempo reale con AllMySat

Download on the App Store